Evergreen, AL

9:19 PM CDT on March 23, 2017 (GMT -0500)
Middleton

Weather History for KGZH - March, 2013

Change the Weather History Date:

Sunday, March 31, 2013

  Actual Average (KPRN) Record (KPRN)
Temperature  
Mean Temperature 66 °F -  
Max Temperature 81 °F 74 °F 88 °F (1954)
Min Temperature 51 °F 48 °F 31 °F (1987)
Growing Degree Days 16 (Base 50)    
Moisture  
Dew Point 56 °F    
Average Humidity 79    
Maximum Humidity 94    
Minimum Humidity 47    
Precipitation  
Precipitation 0.34 in - - ()
Sea Level Pressure  
Sea Level Pressure 29.99 in    
Wind  
Wind Speed 2 mph (SW)    
Max Wind Speed 13 mph    
Max Gust Speed 17 mph    
Visibility 6 miles    
Events Fog , Rain , Thunderstorm    
Averages and records for this station are not official NWS values.
T = Trace of Precipitation, MM = Missing Value Source: NWS Daily Summary

Daily Weather History Graph

Daily Weather History Graph

Search for Another Location

Airport or City:

Trip Planner

Search our weather history database for the weather conditions in past years. The results will help you decide how hot, cold, wet, or windy it might be!

Date:

Astronomy

Mar. 31, 2013 Rise Set
Actual Time 6:37 AM CDT 7:07 PM CDT
Civil Twilight 6:13 AM CDT 7:31 PM CDT
Nautical Twilight 5:44 AM CDT 8:00 PM CDT
Astronomical Twilight 5:15 AM CDT 8:29 PM CDT
Moon 11:59 PM CDT (3/31) 9:41 AM CDT (3/31)
Length of Visible Light 13h 18m
Length of Day
12h 29m
Waning Gibbous, 77% of the Moon is Illuminated
Mar 31
Waning Gibbous
Apr 2
Last Quarter
Apr 10
New
Apr 18
First Quarter
Apr 25
Full

Hourly Weather History & Observations

Time (CDT) Temp. Heat Index Dew Point Humidity Pressure Visibility Wind Dir Wind Speed Gust Speed Precip Events Conditions
12:53 AM 62.1 °F - 55.9 °F 80% 30.08 in 10.0 mi Calm Calm - N/A   Mostly Cloudy
1:53 AM 59.0 °F - 55.0 °F 87% 30.06 in 10.0 mi Calm Calm - 0.00 in   Mostly Cloudy
2:53 AM 59.0 °F - 55.0 °F 87% 30.05 in 10.0 mi Calm Calm - N/A   Clear
3:53 AM 55.9 °F - 53.1 °F 90% 30.04 in 9.0 mi Calm Calm - N/A   Clear
4:53 AM 53.1 °F - 50.0 °F 89% 30.03 in 6.0 mi Calm Calm - N/A   Clear
5:02 AM 53.6 °F - 51.8 °F 94% 30.03 in 1.8 mi Calm Calm - N/A   Clear
5:11 AM 53.6 °F - 51.8 °F 94% 30.03 in 2.5 mi Calm Calm - N/A   Partly Cloudy
5:18 AM 53.6 °F - 51.8 °F 94% 30.03 in 7.0 mi Calm Calm - N/A   Partly Cloudy
5:31 AM 53.6 °F - 50.0 °F 88% 30.03 in 7.0 mi Calm Calm - N/A   Mostly Cloudy
5:35 AM 53.6 °F - 50.0 °F 88% 30.04 in 1.5 mi Calm Calm - N/A   Mostly Cloudy
5:44 AM 53.6 °F - 50.0 °F 88% 30.04 in 0.5 mi Calm Calm - N/A Fog Fog
5:53 AM 53.1 °F - 50.0 °F 89% 30.04 in 1.8 mi Calm Calm - N/A   Overcast
6:08 AM 53.6 °F - 51.8 °F 94% 30.04 in 0.8 mi Calm Calm - N/A   Mist
6:20 AM 51.8 °F - 50.0 °F 94% 30.04 in 1.0 mi Calm Calm - N/A   Overcast
6:38 AM 51.8 °F - 48.2 °F 88% 30.04 in 2.0 mi Calm Calm - N/A   Overcast
6:49 AM 51.8 °F - 50.0 °F 94% 30.04 in 0.8 mi Calm Calm - N/A   Mist
6:53 AM 52.0 °F - 50.0 °F 93% 30.04 in 0.2 mi Calm Calm - N/A Fog Fog
7:53 AM 57.0 °F - 55.0 °F 93% 30.05 in 2.5 mi Calm Calm - N/A   Mostly Cloudy
8:01 AM 57.2 °F - 55.4 °F 94% 30.06 in 4.0 mi Calm Calm - N/A   Scattered Clouds
8:53 AM 66.0 °F - 60.1 °F 81% 30.05 in 10.0 mi Variable 3.5 mph - N/A   Clear
9:53 AM 71.1 °F - 59.0 °F 66% 30.05 in 10.0 mi WSW 6.9 mph - N/A   Mostly Cloudy
10:53 AM 72.0 °F - 59.0 °F 64% 30.04 in 10.0 mi Calm Calm - N/A   Mostly Cloudy
11:53 AM 75.9 °F - 59.0 °F 56% 30.02 in 10.0 mi SW 5.8 mph - N/A   Mostly Cloudy
12:53 PM 75.9 °F - 59.0 °F 56% 29.99 in 10.0 mi SSW 4.6 mph - 0.00 in   Mostly Cloudy
1:53 PM 80.1 °F 80.7 °F 59.0 °F 48% 29.96 in 10.0 mi SSW 8.1 mph - N/A   Partly Cloudy
2:53 PM 79.0 °F - 57.9 °F 48% 29.94 in 10.0 mi SW 10.4 mph - N/A   Scattered Clouds
3:53 PM 80.1 °F 80.6 °F 57.9 °F 47% 29.91 in 10.0 mi SW 12.7 mph - N/A   Scattered Clouds
4:53 PM 73.0 °F - 63.0 °F 71% 29.89 in 10.0 mi SSW 3.5 mph - 0.03 in Rain Light Rain
5:01 PM 73.4 °F - 62.6 °F 69% 29.90 in 10.0 mi WSW 3.5 mph - 0.00 in Thunderstorm Thunderstorm
5:22 PM 75.2 °F - 57.2 °F 53% 29.90 in 10.0 mi SSW 8.1 mph 16.1 mph 0.00 in   Mostly Cloudy
5:53 PM 75.0 °F - 57.0 °F 53% 29.89 in 10.0 mi SSW 8.1 mph - 0.00 in   Scattered Clouds
6:53 PM 73.0 °F - 57.0 °F 57% 29.91 in 10.0 mi SW 9.2 mph - N/A   Scattered Clouds
7:03 PM 73.4 °F - 57.2 °F 57% 29.92 in 10.0 mi SW 9.2 mph - N/A Thunderstorm Mostly Cloudy
7:18 PM 71.6 °F - 57.2 °F 60% 29.93 in 10.0 mi Variable 6.9 mph 16.1 mph 0.00 in Rain Light Rain
7:30 PM 66.2 °F - 60.8 °F 83% 29.95 in 3.0 mi Variable 5.8 mph 17.3 mph 0.11 in Rain , Thunderstorm Heavy Rain
7:37 PM 64.4 °F - 60.8 °F 88% 29.95 in 2.0 mi NNW 4.6 mph - 0.15 in Rain , Thunderstorm Rain
7:53 PM 64.9 °F - 60.1 °F 84% 29.95 in 7.0 mi WSW 6.9 mph - 0.17 in Rain , Thunderstorm Thunderstorms and Rain
8:02 PM 64.4 °F - 60.8 °F 88% 29.96 in 5.0 mi WSW 8.1 mph - 0.03 in Rain Heavy Rain
8:53 PM 64.9 °F - 61.0 °F 87% 29.94 in 6.0 mi SSW 9.2 mph - 0.14 in Rain Rain
9:53 PM 64.0 °F - 60.1 °F 87% 29.95 in 10.0 mi SW 5.8 mph - 0.00 in   Scattered Clouds
10:53 PM 63.0 °F - 60.1 °F 90% 29.94 in 9.0 mi Calm Calm - N/A   Overcast
11:50 PM 62.6 °F - 59.0 °F 88% 29.93 in 2.0 mi Calm Calm - N/A   Scattered Clouds
11:53 PM 62.1 °F - 59.0 °F 90% 29.92 in 1.8 mi Calm Calm - N/A   Scattered Clouds